Header for Extended Forecast Station List Page

Search by: ID | Name | Date | Parm | Value | Avg | % Avg
Sort by: ID | Name | Date | Parm | Value | Avg | % Avg

Enter search or view all records.

Click on id for station plot
#IDNameDateParmValueAvg% Avg
0HWRI1BIG LOST-AT HOWELL RANCH NEAR CHILLY01-23-2023DISCHARGE (KAF)264263
1MACI1BIG LOST-MACKAY RESERVOIR NEAR MACKAY01-23-2023INFLOW (KAF)314078
2MYKO3MCKAY CREEK-NEAR PILOT ROCK01-23-2023DISCHARGE (KAF)344478
3RIDI1WILLOW CREEK-RIRIE DAM01-23-2023INFLOW (KAF)3734109
4DLGM8CLARK FORK-AT DEER LODGE01-23-2023DISCHARGE (KAF)426070
5BERO3MALHEUR-AGENCY VALLEY DAM01-23-2023INFLOW (KAF)4747100
6MILI1SNAKE-AT MILNER01-23-2023DISCHARGE (KAF)485488
7LWRI1LITTLE WOOD-LITTLE WOOD DAM01-23-2023INFLOW (KAF)4837130
8ARDW1ENTIAT-NEAR ARDENVOIR01-23-2023DISCHARGE (KAF)497764
9BULO3BULLY CREEK-BULLY CREEK DAM01-23-2023INFLOW (KAF)535992
10DEDI1DEADWOOD-NEAR LOWMAN01-23-2023INFLOW (KAF)546484
11HALI1BIG WOOD-AT HAILEY01-23-2023DISCHARGE (KAF)569062
12RCCM8ROCK CREEK-NEAR CLINTON01-23-2023DISCHARGE (KAF)6011453
13BUDW1BUMPING-BUMPING LAKE DAM01-23-2023INFLOW (KAF)6768100
14HOTI1BRUNEAU-NEAR HOT SPRINGS01-23-2023DISCHARGE (KAF)6810267
15WRMO3MALHEUR-WARM SPRINGS DAM01-23-2023INFLOW (KAF)697691
16PIHI1PORTNEUF-AT POCATELLO01-23-2023DISCHARGE (KAF)737399
17MAGI1BIG WOOD-MAGIC DAM01-23-2023INFLOW (KAF)8010675
18EASW1YAKIMA-AT EASTON01-23-2023DISCHARGE (KAF)849984
19GIBO3UMATILLA-NEAR GIBBON01-23-2023DISCHARGE (KAF)869096
20KADW1KACHESS-KACHESS DAM01-23-2023INFLOW (KAF)8884105
21KEDW1YAKIMA-KEECHELUS LAKE01-23-2023INFLOW (KAF)10088113
22RILW1TIETON-RIMROCK LAKE NEAR RIMROCK01-23-2023INFLOW (KAF)10711990
23IPDI1HENRYS FORK-ISLAND PARK DAM01-23-2023INFLOW (KAF)11514182
24DRMM8CLARK FORK-NR DRUMMOND01-23-2023DISCHARGE (KAF)11916572
25STRM8ST. REGIS-NEAR ST. REGIS01-23-2023DISCHARGE (KAF)12017369
26TNAW1TEANAWAY-BELOW FORKS01-23-2023DISCHARGE (KAF)127120106
27TEAI1TETON-NEAR ST. ANTHONY01-23-2023DISCHARGE (KAF)13116679
28SATI1ST MARIES-NEAR SANTA01-23-2023DISCHARGE (KAF)138133104
29CHEI1FALL RIVER-NEAR CHESTER01-23-2023DISCHARGE (KAF)17020284
30UMAO3UMATILLA-NEAR UMATILLA01-23-2023DISCHARGE (KAF)17118294
31PDTO3UMATILLA-AT PENDLETON01-23-2023DISCHARGE (KAF)19920398
32CLFW1NACHES-NEAR CLIFFDEL01-23-2023DISCHARGE (KAF)20525082
33CSDI1NF PAYETTE-CASCADE DAM01-23-2023INFLOW (KAF)22729278
34CLUW1CLE ELUM-CLE ELUM LAKE01-23-2023INFLOW (KAF)232230101
35TCHW1WALLA WALLA-NEAR TOUCHET01-23-2023DISCHARGE (KAF)233231101
36PATW1METHOW-NEAR PATEROS01-23-2023DISCHARGE (KAF)24339162
37BITM8BITTERROOT-NEAR MISSOULA01-23-2023DISCHARGE (KAF)24752547
38JLKW4SNAKE-JACKSON LAKE AT DAM01-23-2023INFLOW (KAF)25430384
39ARAI1SF BOISE-ANDERSON RANCH DAM01-23-2023INFLOW (KAF)272260105
40HODO3HOOD-NEAR TUCKER BRIDGE01-23-2023DISCHARGE (KAF)280268105
41NACW1NACHES-NEAR NACHES01-23-2023DISCHARGE (KAF)28435979
42CHDW1CHELAN-LAKE CHELAN DAM01-23-2023INFLOW (KAF)29746963
43BIGI1BOISE-AT GLENWOOD BRIDGE01-23-2023DISCHARGE (KAF)310153202
44BONM8BLACKFOOT-NEAR BONNER01-23-2023DISCHARGE (KAF)32640481
45UNDW1WHITE SALMON-NEAR UNDERWOOD01-23-2023DISCHARGE (KAF)339340100
46WSRI1WEISER-NEAR WEISER01-23-2023DISCHARGE (KAF)36637598
47FCFM8NF FLATHEAD-NEAR COLUMBIA FALLS01-23-2023DISCHARGE (KAF)36766056
48PARI1BOISE-NEAR PARMA01-23-2023DISCHARGE (KAF)379230164
49JKSW4SNAKE-NEAR JACKSON01-23-2023DISCHARGE (KAF)39655671
50WGCM8MF FLATHEAD-NEAR WEST GLACIER01-23-2023DISCHARGE (KAF)40962865
51MONO3NF JOHN DAY-AT MONUMENT01-23-2023DISCHARGE (KAF)41054176
52PRTI1PRIEST-NEAR PRIEST RIVER01-23-2023DISCHARGE (KAF)42951883
53ANTI1HENRYS FORK-AT ST. ANTHONY01-23-2023DISCHARGE (KAF)43450186
54TONW1OKANOGAN-NEAR TONASKET01-23-2023DISCHARGE (KAF)43774759
55REXI1HENRYS FORK-AT REXBURG01-23-2023DISCHARGE (KAF)46554785
56OWYO3OWYHEE-OWYHEE DAM01-23-2023INFLOW (KAF)471254185
57PITW1KLICKITAT-NEAR PITT01-23-2023DISCHARGE (KAF)47949397
58UMTW1YAKIMA-AT UMTANUM01-23-2023DISCHARGE (KAF)48753691
59PARW1YAKIMA-NEAR PARKER01-23-2023DISCHARGE (KAF)48769470
60ABOM8CLARK FORK-ABOVE MISSOULA01-23-2023DISCHARGE (KAF)52472472
61ALPW4SNAKE-NEAR ALPINE01-23-2023DISCHARGE (KAF)53072273
62PESW1WENATCHEE-AT PESHASTIN01-23-2023DISCHARGE (KAF)55872277
63LAUW1KETTLE-AT LAURIER01-23-2023DISCHARGE (KAF)57597259
64SERO3JOHN DAY-AT SERVICE CK01-23-2023DISCHARGE (KAF)57777874
65EMMI1PAYETTE-NEAR EMMETT01-23-2023DISCHARGE (KAF)59576877
66HHWM8SF FLATHEAD-HUNGRY HORSE DAM01-23-2023INFLOW (KAF)70989579
67KIOW1YAKIMA-AT KIONA01-23-2023DISCHARGE (KAF)767101076
68BELM8CLARK FORK-BELOW MISSOULA01-23-2023DISCHARGE (KAF)772127760
69LUCI1BOISE-LUCKY PEAK DAM01-23-2023INFLOW (KAF)780655119
70PLDI1SF SNAKE-PALISADES DAM01-23-2023INFLOW (KAF)925119677
71TRYO3GRANDE RONDE-TROY01-23-2023DISCHARGE (KAF)993105394
72BFTI1SNAKE-NEAR BLACKFOOT01-23-2023DISCHARGE (KAF)1000846118
73SNAI1SNAKE-AT BLACKFOOT01-23-2023DISCHARGE (KAF)1017849120
74SRGM8CLARK FORK-AT ST REGIS01-23-2023DISCHARGE (KAF)1035171760
75SHYI1SNAKE-NEAR SHELLEY01-23-2023DISCHARGE (KAF)11991118107
76HEII1SNAKE-NEAR HEISE01-23-2023DISCHARGE (KAF)12161140107
77SIFI1SNAKE-AB EAGLE ROCK NR IDAHO FALLS01-23-2023DISCHARGE (KAF)12691158110
78LYDM8KOOTENAI-LIBBY DAM01-23-2023INFLOW (KAF)1386192472
79MODO3DESCHUTES-AT MOODY NR BIGGS01-23-2023DISCHARGE (KAF)14961465102
80AFRI1SNAKE-AMERICAN FALLS RESERVOIR01-23-2023INFLOW (KAF)16391497109
81CFMM8FLATHEAD-AT COLUMBIA FALLS01-23-2023DISCHARGE (KAF)1645217776
82WHBI1SALMON-AT WHITEBIRD01-23-2023DISCHARGE (KAF)1756270065
83SWAI1SNAKE-BELOW SWAN FALLS01-23-2023DISCHARGE (KAF)1767189593
84KERM8FLATHEAD-SELI’Š KSANKA QLISPE’ DAM01-23-2023INFLOW (KAF)1852278666
85DWRI1NF CLEARWATER-DWORSHAK DAM01-23-2023INFLOW (KAF)18641867100
86SPOW1SPOKANE-AT SPOKANE01-23-2023DISCHARGE (KAF)1936242180
87COEI1COEUR D ALENE-COEUR D ALENE LAKE01-23-2023INFLOW (KAF)2122239189
88LLKW1SPOKANE-AT LONGLAKE01-23-2023INFLOW (KAF)2274275683
89ORFI1CLEARWATER-AT OROFINO01-23-2023DISCHARGE (KAF)2382277586
90LEOI1KOOTENAI-AT LEONIA01-23-2023DISCHARGE (KAF)25442352108
91NOXM8CLARK FORK-NOXON RAPIDS DAM01-23-2023INFLOW (KAF)3072473765
92WEII1SNAKE-AT WEISER01-23-2023DISCHARGE (KAF)3399367692
93CABI1CLARK FORK-CABINET GORGE DAM01-23-2023INFLOW (KAF)3427540663
94BRNI1SNAKE-BROWNLEE DAM01-23-2023INFLOW (KAF)3797407193
95SPDI1CLEARWATER-AT SPALDING01-23-2023DISCHARGE (KAF)3889448887
96ALFW1PEND OREILLE-ALBENI FALLS DAM01-23-2023INFLOW (KAF)4478638270
97ANAW1SNAKE-NEAR ANATONE01-23-2023DISCHARGE (KAF)6349896071
98LGDW1SNAKE-LOWER GRANITE DAM01-23-2023INFLOW (KAF)102401381674
99LGSW1SNAKE-LITTLE GOOSE DAM01-23-2023INFLOW (KAF)102431386574
100LMNW1SNAKE-LOWER MONUMENTAL DAM01-23-2023INFLOW (KAF)105441403975
101IHDW1SNAKE-ICE HARBOR DAM01-23-2023INFLOW (KAF)105511405575
102CIBW1COLUMBIA-AT INTL BOUNDARY01-23-2023DISCHARGE (KAF)141302007470
103GCDW1COLUMBIA-GRAND COULEE DAM01-23-2023INFLOW (KAF)170842346173
104CHJW1COLUMBIA-CHIEF JOSEPH DAM01-23-2023INFLOW (KAF)180532571970
105WELW1COLUMBIA-WELLS DAM01-23-2023INFLOW (KAF)187112705369
106RRHW1COLUMBIA-ROCKY REACH DAM01-23-2023INFLOW (KAF)190472762669
107PRWW1COLUMBIA-PRIEST RAPIDS DAM01-23-2023INFLOW (KAF)195922862668
108WANW1COLUMBIA-WANAPUM DAM01-23-2023INFLOW (KAF)195942855769
109MCDW1COLUMBIA-MCNARY DAM01-23-2023INFLOW (KAF)310514384771
110JDAO3COLUMBIA-JOHN DAY DAM01-23-2023INFLOW (KAF)330284595072
111TDAO3COLUMBIA-THE DALLES DAM01-23-2023INFLOW (KAF)335274645972
112BONO3COLUMBIA-BONNEVILLE DAM01-23-2023INFLOW (KAF)346184850771
113BFEI1KOOTENAI-AT BONNERS FERRY01-23-2023STAGE (FT)MMM
114HOPI1PEND OREILLE-PEND OREILLE LAKE NR HOPE01-23-2023LAKE ELEVATION (FT)MMM
115SJMI1ST JOE-AT ST MARIES01-23-2023STAGE (FT)MMM